Regional Weather Roundup
Issued by NWS Charleston, WV

Home | Current Version | Previous Version | Text Only | Print | Product List | Glossary On
Versions: 1 2 3 4 5 6 7 8 9 10 11 12 13 14 15 16 17 18 19 20 21 22 23 24 25 26 27 28 29 30 31 32 33 34 35 36 37 38 39 40 41 42 43 44 45 46 47 48 49 50
000
ASUS41 KRLX 240410
RWRRLX
West Virginia Regional Weather Roundup
National Weather Service Charleston WV
1200 AM EDT MON JUL 24 2017

Note: "fair" indicates few or no clouds below 12,000 feet with no
significant weather and/or obstructions to visibility.

WVZ003-240500-
Northern Panhandle of West Virginia

CITY           SKY/WX    TMP DP  RH WIND       PRES   REMARKS
WHEELING       CLOUDY    67  65  93 SW8       29.81S
$$

WVZ009-240500-
Northwest West Virginia

CITY           SKY/WX    TMP DP  RH WIND       PRES   REMARKS
PARKERSBURG    LGT RAIN  69  68  96 SW3       29.85F
$$

WVZ006-240500-
Western West Virginia

CITY           SKY/WX    TMP DP  RH WIND       PRES   REMARKS
HUNTINGTON     CLOUDY    73  71  93 SW5       29.85S
$$

WVZ015-240500-
West Central West Virginia

CITY           SKY/WX    TMP DP  RH WIND       PRES   REMARKS
CHARLESTON     PTCLDY    72  70  93 CALM      29.86S
$$

WVZ022-031-240500-
North Central West Virginia

CITY           SKY/WX    TMP DP  RH WIND       PRES   REMARKS
CLARKSBURG     CLOUDY    73  68  84 S3        29.85R
MORGANTOWN     LGT RAIN  73  68  84 SW6       29.83S
$$

WVZ025-035-042-045-240500-
Southern West Virginia

CITY           SKY/WX    TMP DP  RH WIND       PRES   REMARKS
BECKLEY        CLOUDY    72  65  78 S8        29.97R
LOGAN          MOCLDY    73  72  94 CALM      29.91S
BLUEFIELD      LGT RAIN  65  63  93 W7        30.01R
LEWISBURG      CLOUDY    71  65  82 S5        29.95R
$$

WVZ047-240500-
Northern Mountains of West Virginia

CITY           SKY/WX    TMP DP  RH WIND       PRES   REMARKS
ELKINS         CLEAR     67  62  84 CALM      29.90S
$$

WVZ052-240500-
Eastern Panhandle of West Virginia

CITY           SKY/WX    TMP DP  RH WIND       PRES   REMARKS
MARTINSBURG    CLOUDY    75  73  93 N3        29.78F
PETERSBURG     MOCLDY    82  65  56 SW6       29.82S
$$



USA.gov is the U.S. government's official web portal to all federal, state and local government web resources and services.